SPACEBEE-53 (47434 NORAD) Tracking and Keplerian Element Data

This shows tracking and keplerian element data for the satellite.

Feedback or suggestion? Click here.




ElementValue
Catalog47434
NameSPACEBEE-53
Epoch Orbit1261
Epoch Day106.09339907
Epoch Year2021
RAAN168.3368
Inclination97.5011
Eccentricity0.0004763
Argument of Perigee340.2053
Mean Anonmoly19.8992
Mean Motion15.11774926
Decay Rate2.344E-05
L11 47434U 21006X 21106.09339907 .00002344 00000-0 14115-3 0 9999
L22 47434 97.5011 168.3368 0004763 340.2053 19.8992 15.11774926 12610

Live tracking and technical data element details for SPACEBEE-53 (NORAD 47434). SPACEBEE-53 can be tracked NOW for your location showing map with azimuth and elevation plus other details from your city location.

Track the satellite on the map from your city or location and see movement details for azimuth, elevation, latitude, longitude, range, height, and movement on the map or in text.







IsCatalogInMostPopularTable: catalog: 47434, numindb: 15
Update: records affected: 1



GetName: 47434 SPACEBEE-53

Hit Count: updated at: Fri, 16 Apr 2021 11:00:24 GMT